TimeMDT,TemperatureF,Dew PointF,Humidity,Sea Level PressureIn,VisibilityMPH,Wind Direction,Wind SpeedMPH,Gust SpeedMPH,PrecipitationIn,Events,Conditions,WindDirDegrees,DateUTC
12:53 AM,73.9,52.0,46,29.94,10.0,SE,12.7,-,N/A,,Clear,140,2013-07-19 06:53:00
1:53 AM,73.9,52.0,46,29.92,10.0,North,4.6,-,N/A,,Clear,10,2013-07-19 07:53:00
2:53 AM,75.0,54.0,48,29.90,10.0,East,9.2,-,N/A,,Clear,80,2013-07-19 08:53:00
3:53 AM,73.0,54.0,51,29.90,10.0,ESE,5.8,-,N/A,,Clear,120,2013-07-19 09:53:00
4:53 AM,73.9,54.0,50,29.89,10.0,ENE,4.6,-,N/A,,Scattered Clouds,70,2013-07-19 10:53:00
5:53 AM,72.0,53.1,51,29.91,10.0,Calm,Calm,-,N/A,,Clear,0,2013-07-19 11:53:00
6:53 AM,73.0,54.0,51,29.93,10.0,East,5.8,-,N/A,,Clear,80,2013-07-19 12:53:00
7:53 AM,73.9,55.0,52,29.95,10.0,East,5.8,-,N/A,,Clear,100,2013-07-19 13:53:00
8:53 AM,75.9,55.9,50,29.95,10.0,East,6.9,-,N/A,,Clear,100,2013-07-19 14:53:00
9:53 AM,80.1,54.0,40,29.95,10.0,Calm,Calm,-,N/A,,Clear,0,2013-07-19 15:53:00
10:53 AM,84.0,53.1,34,29.93,10.0,ESE,5.8,-,N/A,,Clear,120,2013-07-19 16:53:00
11:53 AM,87.1,50.0,28,29.90,10.0,Variable,6.9,-,N/A,,Clear,0,2013-07-19 17:53:00
12:53 PM,88.0,48.9,26,29.88,10.0,Variable,3.5,-,N/A,,Clear,0,2013-07-19 18:53:00
1:53 PM,91.9,46.9,21,29.86,10.0,SE,8.1,16.1,N/A,,Clear,140,2013-07-19 19:53:00
2:53 PM,96.1,46.9,19,29.81,10.0,NNE,9.2,18.4,N/A,,Clear,30,2013-07-19 20:53:00
3:53 PM,93.9,46.9,20,29.78,10.0,Variable,3.5,-,N/A,,Clear,0,2013-07-19 21:53:00
4:53 PM,98.1,43.0,15,29.75,10.0,Variable,3.5,-,N/A,,Clear,0,2013-07-19 22:53:00
5:53 PM,97.0,41.0,14,29.73,10.0,Variable,3.5,17.3,N/A,,Clear,0,2013-07-19 23:53:00
6:53 PM,95.0,39.9,15,29.72,10.0,Variable,4.6,-,N/A,,Clear,0,2013-07-20 00:53:00
7:53 PM,93.9,41.0,16,29.72,10.0,East,5.8,-,N/A,,Clear,90,2013-07-20 01:53:00
8:53 PM,91.9,42.1,18,29.73,10.0,NNE,3.5,-,N/A,,Clear,20,2013-07-20 02:53:00
9:53 PM,84.9,42.1,22,29.75,10.0,West,4.6,-,N/A,,Clear,260,2013-07-20 03:53:00
10:53 PM,82.0,43.0,25,29.75,10.0,West,5.8,-,N/A,,Clear,270,2013-07-20 04:53:00
11:53 PM,82.0,41.0,23,29.75,10.0,ESE,3.5,-,N/A,,Clear,120,2013-07-20 05:53:00